Mackinac Island, MI

5:58 PM EDT on May 26, 2018 (GMT -0400)
Mackinac Island

Weather History for KMCD - October, 2013

Change the Weather History Date:

Saturday, October 26, 2013

  Actual Average Record
Temperature  
Mean Temperature 42 °F -  
Max Temperature 48 °F 47 °F 67 °F (1989)
Min Temperature 35 °F 37 °F 25 °F (1976)
Degree Days  
Heating Degree Days 24    
Moisture  
Dew Point 36 °F    
Average Humidity 79    
Maximum Humidity 95    
Minimum Humidity 64    
Precipitation  
Precipitation 0.17 in - - ()
Sea Level Pressure  
Sea Level Pressure 29.68 in    
Wind  
Wind Speed 17 mph (WNW)    
Max Wind Speed 29 mph    
Max Gust Speed 43 mph    
Visibility 9 miles    
Events Rain    
Averages and records for this station are not official NWS values.
T = Trace of Precipitation, MM = Missing Value Source: NWS Daily Summary

Daily Weather History Graph

Daily Weather History Graph

Search for Another Location

Airport or City:

Astronomy

Oct. 26, 2013 Rise Set
Actual Time 8:10 AM EDT 6:33 PM EDT
Civil Twilight 7:39 AM EDT 7:04 PM EDT
Nautical Twilight 7:05 AM EDT 7:39 PM EDT
Astronomical Twilight 6:30 AM EDT 8:13 PM EDT
Moon No Moon Rise 2:28 PM EDT
Length of Visible Light 11h 24m
Length of Day
10h 22m
Waning Gibbous, 53% of the Moon is Illuminated
Oct 26
Waning Gibbous
Oct 26
Last Quarter
Nov 3
New
Nov 10
First Quarter
Nov 17
Full

Hourly Weather History & Observations

Time (EDT) Temp. Windchill Dew Point Humidity Pressure Visibility Wind Dir Wind Speed Gust Speed Precip Events Conditions
12:16 AM 40.5 °F 32.1 °F 38.3 °F 92% 29.70 in 3.0 mi SSW 16.1 mph 32.2 mph 0.02 in Rain Light Rain
12:36 AM 41.4 °F 33.0 °F 40.1 °F 95% 29.68 in 3.0 mi SSW 17.3 mph 31.1 mph 0.03 in Rain Light Rain
12:55 AM 41.9 °F 34.0 °F 40.5 °F 95% 29.66 in 5.0 mi SSW 16.1 mph 31.1 mph 0.03 in Rain Light Rain
1:16 AM 41.9 °F 32.3 °F 40.3 °F 94% 29.64 in 5.0 mi SSW 23.0 mph 35.7 mph 0.01 in Rain Light Rain
1:36 AM 42.4 °F 33.1 °F 40.1 °F 91% 29.62 in 7.0 mi SSW 23.0 mph 32.2 mph 0.02 in Rain Light Rain
1:55 AM 42.8 °F 34.0 °F 40.1 °F 90% 29.60 in 7.0 mi SSW 20.7 mph 34.5 mph 0.04 in Rain Light Rain
2:16 AM 42.6 °F 33.8 °F 40.1 °F 91% 29.59 in 5.0 mi SSW 20.7 mph 35.7 mph 0.02 in Rain Light Rain
2:36 AM 42.8 °F 34.8 °F 40.3 °F 91% 29.58 in 7.0 mi SSW 17.3 mph 31.1 mph 0.04 in Rain Light Rain
2:55 AM 42.8 °F 34.5 °F 40.8 °F 93% 29.56 in 4.0 mi SSW 18.4 mph 29.9 mph 0.07 in   Overcast
3:16 AM 43.2 °F 35.6 °F 41.0 °F 92% 29.55 in 10.0 mi SSW 16.1 mph 28.8 mph 0.01 in Rain Light Rain
3:36 AM 44.2 °F 36.7 °F 41.4 °F 90% 29.54 in 10.0 mi SSW 17.3 mph 28.8 mph 0.01 in   Overcast
3:55 AM 44.8 °F 37.4 °F 41.5 °F 88% 29.53 in 10.0 mi SW 17.3 mph 28.8 mph 0.01 in Rain Rain
4:16 AM 45.9 °F 39.1 °F 41.7 °F 85% 29.52 in 10.0 mi SW 16.1 mph 25.3 mph N/A Rain Light Rain
4:36 AM 46.6 °F - 41.9 °F 84% 29.51 in 7.0 mi West 16.1 mph 38.0 mph 0.02 in Rain Light Rain
4:55 AM 48.2 °F - 40.5 °F 75% 29.50 in 10.0 mi West 28.8 mph 42.6 mph 0.02 in   Overcast
5:16 AM 47.7 °F - 40.1 °F 75% 29.51 in 10.0 mi West 25.3 mph 34.5 mph N/A   Overcast
5:36 AM 46.9 °F - 39.2 °F 74% 29.52 in 10.0 mi West 24.2 mph 29.9 mph N/A   Overcast
5:56 AM 46.0 °F 37.6 °F 38.5 °F 75% 29.52 in 10.0 mi WNW 24.2 mph 31.1 mph N/A   Overcast
6:16 AM 45.5 °F 38.1 °F 38.1 °F 75% 29.53 in 10.0 mi WNW 18.4 mph 32.2 mph N/A   Overcast
6:35 AM 45.0 °F 37.1 °F 38.3 °F 77% 29.54 in 10.0 mi West 19.6 mph 31.1 mph N/A   Scattered Clouds
6:56 AM 44.2 °F 37.0 °F 37.8 °F 78% 29.55 in 10.0 mi West 16.1 mph 25.3 mph N/A   Scattered Clouds
7:16 AM 44.1 °F 37.4 °F 37.4 °F 77% 29.55 in 10.0 mi West 13.8 mph 19.6 mph N/A   Scattered Clouds
7:35 AM 44.2 °F 37.6 °F 37.2 °F 76% 29.55 in 10.0 mi West 13.8 mph 21.9 mph N/A   Scattered Clouds
7:56 AM 44.6 °F 37.8 °F 37.0 °F 75% 29.56 in 10.0 mi West 15.0 mph 21.9 mph N/A   Mostly Cloudy
8:16 AM 45.0 °F 37.1 °F 37.4 °F 75% 29.56 in 10.0 mi West 19.6 mph 26.5 mph N/A   Overcast
8:35 AM 43.0 °F 35.4 °F 37.4 °F 81% 29.57 in 10.0 mi WNW 16.1 mph 27.6 mph N/A   Overcast
8:56 AM 42.8 °F 34.8 °F 37.6 °F 82% 29.58 in 10.0 mi WNW 17.3 mph 26.5 mph N/A   Overcast
9:16 AM 42.8 °F 34.8 °F 37.0 °F 80% 29.58 in 10.0 mi WNW 17.3 mph 27.6 mph N/A   Overcast
9:35 AM 42.8 °F 35.8 °F 36.0 °F 77% 29.58 in 10.0 mi WNW 13.8 mph 25.3 mph N/A   Overcast
9:56 AM 43.0 °F 34.2 °F 35.4 °F 75% 29.59 in 10.0 mi WNW 20.7 mph 27.6 mph N/A   Overcast
10:16 AM 42.3 °F 33.8 °F 35.1 °F 76% 29.60 in 10.0 mi West 18.4 mph 25.3 mph N/A   Overcast
10:36 AM 43.0 °F 34.8 °F 34.3 °F 72% 29.60 in 10.0 mi WNW 18.4 mph 27.6 mph N/A   Scattered Clouds
10:56 AM 43.7 °F 35.2 °F 33.8 °F 68% 29.60 in 10.0 mi WNW 20.7 mph 27.6 mph N/A   Scattered Clouds
11:16 AM 43.9 °F 35.9 °F 33.8 °F 68% 29.61 in 10.0 mi West 18.4 mph 27.6 mph N/A   Mostly Cloudy
11:36 AM 43.9 °F 35.4 °F 33.4 °F 67% 29.61 in 10.0 mi WNW 20.7 mph 31.1 mph N/A   Overcast
11:56 AM 44.6 °F 36.9 °F 34.7 °F 68% 29.62 in 10.0 mi West 18.4 mph 25.3 mph N/A   Overcast
12:16 PM 44.1 °F 36.8 °F 34.0 °F 68% 29.62 in 10.0 mi West 16.1 mph 27.6 mph N/A   Overcast
12:36 PM 44.1 °F 35.9 °F 34.3 °F 69% 29.63 in 10.0 mi West 19.6 mph 27.6 mph N/A   Overcast
12:56 PM 44.8 °F 36.9 °F 34.9 °F 68% 29.63 in 10.0 mi West 19.6 mph 25.3 mph N/A   Mostly Cloudy
1:16 PM 45.7 °F 37.6 °F 34.0 °F 64% 29.64 in 10.0 mi WNW 21.9 mph 31.1 mph N/A   Overcast
1:36 PM 44.4 °F 36.1 °F 35.2 °F 70% 29.65 in 10.0 mi WNW 20.7 mph 29.9 mph N/A   Overcast
1:56 PM 44.8 °F 37.1 °F 35.2 °F 69% 29.65 in 10.0 mi WNW 18.4 mph 25.3 mph N/A   Overcast
2:16 PM 44.4 °F 36.6 °F 35.2 °F 70% 29.66 in 10.0 mi WNW 18.4 mph 25.3 mph N/A Rain Light Rain
2:36 PM 43.3 °F 35.5 °F 38.3 °F 82% 29.66 in 10.0 mi WNW 17.3 mph 25.3 mph N/A   Mostly Cloudy
2:56 PM 42.8 °F 35.8 °F 37.6 °F 82% 29.67 in 7.0 mi WNW 13.8 mph 24.2 mph N/A   Light Drizzle
3:16 PM 44.4 °F 37.5 °F 37.2 °F 76% 29.68 in 10.0 mi NW 15.0 mph 25.3 mph N/A   Overcast
3:36 PM 44.6 °F 37.4 °F 35.1 °F 69% 29.69 in 10.0 mi NW 16.1 mph 23.0 mph N/A   Mostly Cloudy
3:56 PM 42.6 °F 35.2 °F 35.8 °F 77% 29.71 in 10.0 mi NW 15.0 mph 26.5 mph N/A   Overcast
4:16 PM 43.5 °F 36.4 °F 35.4 °F 73% 29.72 in 10.0 mi WNW 15.0 mph 20.7 mph N/A   Mostly Cloudy
4:36 PM 44.4 °F 37.9 °F 35.2 °F 70% 29.73 in 10.0 mi NW 13.8 mph 25.3 mph N/A   Mostly Cloudy
4:56 PM 41.9 °F 34.3 °F 35.4 °F 78% 29.75 in 7.0 mi NW 15.0 mph 29.9 mph N/A Rain Light Rain
5:15 PM 41.9 °F 35.0 °F 34.7 °F 76% 29.75 in 10.0 mi NW 12.7 mph 19.6 mph N/A   Mostly Cloudy
5:36 PM 42.8 °F 35.4 °F 32.5 °F 67% 29.77 in 10.0 mi NW 15.0 mph 24.2 mph N/A   Mostly Cloudy
5:56 PM 42.1 °F 35.2 °F 32.2 °F 68% 29.78 in 10.0 mi NW 12.7 mph 23.0 mph N/A   Mostly Cloudy
6:15 PM 41.5 °F 33.5 °F 32.4 °F 70% 29.79 in 10.0 mi NW 16.1 mph 24.2 mph N/A   Scattered Clouds
6:36 PM 41.0 °F 32.5 °F 32.2 °F 71% 29.81 in 10.0 mi NNW 17.3 mph 26.5 mph N/A   Clear
6:56 PM 41.0 °F 34.3 °F 32.2 °F 71% 29.82 in 10.0 mi North 11.5 mph 24.2 mph N/A   Mostly Cloudy
7:15 PM 40.1 °F 34.1 °F 33.4 °F 77% 29.82 in 10.0 mi WNW 9.2 mph 17.3 mph N/A   Mostly Cloudy
7:36 PM 39.4 °F 31.1 °F 33.6 °F 80% 29.84 in 10.0 mi WNW 15.0 mph 20.7 mph N/A   Scattered Clouds
7:56 PM 38.7 °F 30.5 °F 32.9 °F 80% 29.85 in 10.0 mi WNW 13.8 mph 18.4 mph N/A   Clear
8:16 PM 38.5 °F 30.3 °F 33.3 °F 81% 29.85 in 10.0 mi WNW 13.8 mph 20.7 mph N/A   Clear
8:36 PM 38.3 °F 30.9 °F 33.8 °F 84% 29.86 in 10.0 mi WNW 11.5 mph 19.6 mph N/A   Clear
8:55 PM 37.9 °F 30.0 °F 34.0 °F 86% 29.87 in 10.0 mi WNW 12.7 mph 18.4 mph N/A   Scattered Clouds
9:16 PM 37.4 °F 31.4 °F 33.8 °F 87% 29.87 in 10.0 mi NW 8.1 mph 18.4 mph N/A   Mostly Cloudy
9:36 PM 37.6 °F 29.6 °F 34.0 °F 87% 29.88 in 10.0 mi WNW 12.7 mph 20.7 mph N/A   Overcast
9:55 PM 37.4 °F 30.3 °F 33.8 °F 87% 29.88 in 10.0 mi WNW 10.4 mph 19.6 mph N/A   Scattered Clouds
10:16 PM 37.0 °F 29.8 °F 32.9 °F 85% 29.88 in 10.0 mi NW 10.4 mph 19.6 mph N/A   Clear
10:36 PM 36.5 °F 28.2 °F 32.9 °F 87% 29.89 in 10.0 mi NW 12.7 mph 18.4 mph N/A   Scattered Clouds
10:56 PM 36.0 °F 28.0 °F 32.5 °F 87% 29.90 in 10.0 mi NW 11.5 mph 19.6 mph N/A   Scattered Clouds
11:16 PM 35.6 °F 30.7 °F 32.4 °F 88% 29.90 in 10.0 mi NW 5.8 mph - N/A   Scattered Clouds
11:36 PM 35.6 °F 28.0 °F 32.9 °F 90% 29.91 in 10.0 mi NW 10.4 mph - N/A   Scattered Clouds
11:56 PM 35.1 °F 28.6 °F 32.7 °F 91% 29.91 in 10.0 mi NW 8.1 mph - N/A   Mostly Cloudy